| time (UTC) | temp F | wind direction | speed MPH | gust MPH | rain 1hr in | rain 24hr in | rain mn in | humidity % | barometer mb |
| 20260901215225 | 92 | 20 | 2.0 | 2.0 | 0.00 | 0.00 | 0.00 | 65 | 4253.0 |
| 20260901214223 | 94 | 353 | 2.0 | 3.0 | 0.00 | 0.00 | 0.00 | 61 | 4253.2 |
| 20260901213218 | 95 | 1 | 1.0 | 2.0 | 0.00 | 0.00 | 0.00 | 64 | 4253.1 |
| 20260901212214 | 95 | 334 | 2.0 | 2.0 | 0.00 | 0.00 | 0.00 | 61 | 4253.3 |
| 20260901211211 | 94 | 354 | 3.0 | 3.0 | 0.00 | 0.00 | 0.00 | 65 | 4253.3 |
| 20260901210207 | 95 | 2 | 2.0 | 2.0 | 0.00 | 0.00 | 0.00 | 66 | 4253.3 |
| 20260901205203 | 95 | 353 | 1.0 | 2.0 | 0.00 | 0.00 | 0.00 | 62 | 4253.5 |
| 20260901204200 | 95 | 17 | 3.0 | 3.0 | 0.00 | 0.00 | 0.00 | 62 | 4253.5 |
| 20260901203155 | 95 | 343 | 2.0 | 3.0 | 0.00 | 0.00 | 0.00 | 61 | 4253.5 |
| 20260901202150 | 95 | 335 | 2.0 | 3.0 | 0.00 | 0.00 | 0.00 | 59 | 4253.8 |
| 20260901201145 | 95 | 4 | 1.0 | 2.0 | 0.00 | 0.00 | 0.00 | 63 | 4253.9 |
| 20260901200140 | 95 | 9 | 3.0 | 3.0 | 0.00 | 0.00 | 0.00 | 62 | 4253.9 |
| 20260901195138 | 96 | 347 | 3.0 | 3.0 | 0.00 | 0.00 | 0.00 | 58 | 4254.0 |
| 20260901194134 | 95 | 351 | 3.0 | 3.0 | 0.00 | 0.00 | 0.00 | 58 | 4253.9 |
| 20260901193130 | 96 | 331 | 3.0 | 3.0 | 0.00 | 0.00 | 0.00 | 56 | 4254.2 |
| 20260901192126 | 96 | 9 | 3.0 | 3.0 | 0.00 | 0.00 | 0.00 | 56 | 4254.3 |
| 20260901191124 | 95 | 4 | 2.0 | 2.0 | 0.00 | 0.00 | 0.00 | 59 | 4254.5 |
| 20260901190119 | 95 | 1 | 3.0 | 3.0 | 0.00 | 0.00 | 0.00 | 56 | 4254.5 |
| 20260901185116 | 95 | 344 | 3.0 | 3.0 | 0.00 | 0.00 | 0.00 | 56 | 4254.7 |
| 20260901184113 | 95 | 355 | 3.0 | 3.0 | 0.00 | 0.00 | 0.00 | 57 | 4254.7 |
| 20260901183109 | 95 | 354 | 3.0 | 3.0 | 0.00 | 0.00 | 0.00 | 58 | 4254.9 |
| 20260901182104 | 95 | 349 | 2.0 | 2.0 | 0.00 | 0.00 | 0.00 | 58 | 4255.0 |
| 20260901181104 | 95 | 7 | 2.0 | 3.0 | 0.00 | 0.00 | 0.00 | 60 | 4255.0 |
| 20260901180058 | 95 | 355 | 1.0 | 1.0 | 0.00 | 0.00 | 0.00 | 61 | 4255.2 |
| 20260901175057 | 94 | 5 | 1.0 | 2.0 | 0.00 | 0.00 | 0.00 | 61 | 4255.4 |
| 20260901174055 | 94 | 16 | 3.0 | 3.0 | 0.00 | 0.00 | 0.00 | 60 | 4255.6 |
| 20260901173051 | 94 | 2 | 3.0 | 3.0 | 0.00 | 0.00 | 0.00 | 66 | 4255.6 |
| 20260901172050 | 93 | 11 | 2.0 | 2.0 | 0.00 | 0.00 | 0.00 | 66 | 4255.7 |
| 20260901171049 | 93 | 14 | 1.0 | 1.0 | 0.00 | 0.00 | 0.00 | 65 | 4255.7 |
| 20260901170044 | 93 | 14 | 1.0 | 1.0 | 0.00 | 0.00 | 0.00 | 66 | 4255.9 |
| 20260901165039 | 92 | 8 | 1.0 | 1.0 | 0.00 | 0.00 | 0.00 | 65 | 4256.1 |
| 20260901164035 | 92 | 11 | 1.0 | 2.0 | 0.00 | 0.00 | 0.00 | 69 | 4256.0 |
| 20260901163036 | 91 | 11 | 3.0 | 3.0 | 0.00 | 0.00 | 0.00 | 71 | 4256.1 |
| 20260901162036 | 90 | 12 | 2.0 | 2.0 | 0.00 | 0.00 | 0.00 | 77 | 4256.3 |
| 20260901161034 | 90 | 15 | 3.0 | 3.0 | 0.00 | 0.00 | 0.00 | 78 | 4256.3 |
| 20260901160032 | 89 | 13 | 2.0 | 2.0 | 0.00 | 0.00 | 0.00 | 79 | 4256.4 |
| 20260901155027 | 89 | 10 | 2.0 | 2.0 | 0.00 | 0.00 | 0.00 | 80 | 4256.4 |
| 20260901154027 | 88 | 7 | 2.0 | 2.0 | 0.00 | 0.00 | 0.00 | 82 | 4256.5 |
| 20260901153022 | 87 | 18 | 3.0 | 3.0 | 0.00 | 0.00 | 0.00 | 82 | 4256.4 |
| 20260901152021 | 86 | 6 | 3.0 | 3.0 | 0.00 | 0.00 | 0.00 | 82 | 4256.5 |
| 20260901151016 | 86 | 8 | 2.0 | 2.0 | 0.00 | 0.00 | 0.00 | 82 | 4256.4 |
| 20260901150013 | 85 | 6 | 1.0 | 1.0 | 0.00 | 0.00 | 0.00 | 83 | 4256.5 |
| 20260901145012 | 85 | 18 | 2.0 | 2.0 | 0.00 | 0.00 | 0.00 | 84 | 4256.6 |
| 20260901144009 | 84 | 38 | 0.0 | 0.0 | 0.00 | 0.00 | 0.00 | 84 | 4256.7 |
| 20260901143007 | 84 | 24 | 1.0 | 2.0 | 0.00 | 0.00 | 0.00 | 85 | 4256.4 |
| 20260901142002 | 82 | 38 | 1.0 | 1.0 | 0.00 | 0.00 | 0.00 | 88 | 4256.3 |
| 20260901140957 | 81 | 21 | 1.0 | 1.0 | 0.00 | 0.00 | 0.00 | 91 | 4256.7 |
| 20260901135955 | 80 | 40 | 0.0 | 1.0 | 0.00 | 0.00 | 0.00 | 94 | 4256.6 |
| 20260901134951 | 79 | 47 | 0.0 | 0.0 | 0.00 | 0.00 | 0.00 | 96 | 4256.3 |
| 20260901133947 | 78 | 9 | 2.0 | 2.0 | 0.00 | 0.00 | 0.00 | 96 | 4256.4 |
| 20260901132945 | 78 | 11 | 0.0 | 0.0 | 0.00 | 0.00 | 0.00 | 97 | 4256.4 |
| 20260901131944 | 77 | 4 | 1.0 | 1.0 | 0.00 | 0.00 | 0.00 | 98 | 4256.5 |
| 20260901130940 | 76 | 330 | 1.0 | 1.0 | 0.00 | 0.00 | 0.00 | 98 | 4256.3 |
| 20260901125938 | 75 | 229 | 1.0 | 1.0 | 0.00 | 0.00 | 0.00 | 99 | 4256.1 |
| 20260901124938 | 74 | 226 | 0.0 | 1.0 | 0.00 | 0.00 | 0.00 | 98 | 4256.1 |
| 20260901123934 | 73 | 207 | 0.0 | 0.0 | 0.00 | 0.00 | 0.00 | 99 | 4256.2 |
| 20260901122933 | 73 | 213 | 0.0 | 1.0 | 0.00 | 0.00 | 0.00 | 99 | 4256.3 |
| 20260901121933 | 72 | 217 | 1.0 | 1.0 | 0.00 | 0.00 | 0.00 | 99 | 4256.3 |
| 20260901120929 | 71 | 212 | 1.0 | 1.0 | 0.00 | 0.00 | 0.00 | 99 | 4256.3 |
| 20260901115924 | 71 | 206 | 1.0 | 1.0 | 0.00 | 0.00 | 0.00 | 99 | 4256.1 |
| 20260901114922 | 71 | 209 | 1.0 | 1.0 | 0.00 | 0.00 | 0.00 | 99 | 4255.9 |
| 20260901113921 | 71 | 218 | 1.0 | 1.0 | 0.00 | 0.00 | 0.00 | 99 | 4255.7 |
| 20260901112922 | 70 | 207 | 1.0 | 1.0 | 0.00 | 0.00 | 0.00 | 99 | 4255.6 |
| 20260901111917 | 71 | 224 | 1.0 | 1.0 | 0.00 | 0.00 | 0.00 | 99 | 4255.4 |
| 20260901110914 | 71 | 226 | 1.0 | 1.0 | 0.00 | 0.00 | 0.00 | 99 | 4255.6 |
| 20260901105912 | 71 | 202 | 0.0 | 0.0 | 0.00 | 0.00 | 0.00 | 99 | 4255.4 |
| 20260901104909 | 71 | 215 | 1.0 | 1.0 | 0.00 | 0.00 | 0.00 | 99 | 4255.4 |
| 20260901103906 | 71 | 213 | 1.0 | 1.0 | 0.00 | 0.00 | 0.00 | 99 | 4255.4 |
| 20260901102906 | 71 | 211 | 1.0 | 1.0 | 0.00 | 0.00 | 0.00 | 99 | 4255.2 |
| 20260901101902 | 71 | 209 | 1.0 | 1.0 | 0.00 | 0.00 | 0.00 | 99 | 4255.3 |
| 20260901100902 | 71 | 210 | 1.0 | 1.0 | 0.00 | 0.00 | 0.00 | 99 | 4255.0 |
| 20260901095856 | 72 | 209 | 1.0 | 1.0 | 0.00 | 0.00 | 0.00 | 99 | 4255.2 |
| 20260901094853 | 72 | 203 | 1.0 | 1.0 | 0.00 | 0.00 | 0.00 | 99 | 4255.1 |
| 20260901093849 | 72 | 209 | 1.0 | 1.0 | 0.00 | 0.00 | 0.00 | 99 | 4254.9 |
| 20260901092844 | 71 | 216 | 1.0 | 1.0 | 0.00 | 0.00 | 0.00 | 99 | 4254.7 |
| 20260901091841 | 71 | 215 | 1.0 | 1.0 | 0.00 | 0.00 | 0.00 | 99 | 4254.7 |
| 20260901090842 | 72 | 219 | 0.0 | 1.0 | 0.00 | 0.00 | 0.00 | 99 | 4254.7 |
| 20260901085838 | 72 | 203 | 1.0 | 1.0 | 0.00 | 0.00 | 0.00 | 99 | 4254.6 |
| 20260901084835 | 72 | 206 | 1.0 | 1.0 | 0.00 | 0.00 | 0.00 | 99 | 4254.6 |
| 20260901083832 | 72 | 213 | 1.0 | 1.0 | 0.00 | 0.00 | 0.00 | 99 | 4254.6 |
| 20260901082830 | 72 | 220 | 1.0 | 1.0 | 0.00 | 0.00 | 0.00 | 99 | 4254.5 |
| 20260901081827 | 72 | 210 | 1.0 | 1.0 | 0.00 | 0.00 | 0.00 | 99 | 4254.6 |
| 20260901080822 | 73 | 212 | 1.0 | 1.0 | 0.00 | 0.00 | 0.00 | 99 | 4254.5 |
| 20260901075822 | 72 | 202 | 2.0 | 2.0 | 0.00 | 0.00 | 0.00 | 99 | 4254.6 |
| 20260901074818 | 72 | 214 | 1.0 | 2.0 | 0.00 | 0.00 | 0.00 | 99 | 4254.4 |
| 20260901073814 | 73 | 211 | 1.0 | 2.0 | 0.00 | 0.00 | 0.00 | 99 | 4254.4 |
| 20260901072811 | 73 | 215 | 2.0 | 2.0 | 0.00 | 0.00 | 0.00 | 99 | 4254.6 |
| 20260901071806 | 73 | 212 | 1.0 | 1.0 | 0.00 | 0.00 | 0.00 | 99 | 4254.5 |
| 20260901070803 | 73 | 212 | 1.0 | 1.0 | 0.00 | 0.00 | 0.00 | 99 | 4254.6 |
| 20260901065759 | 73 | 209 | 1.0 | 1.0 | 0.00 | 0.00 | 0.00 | 99 | 4254.6 |
| 20260901064756 | 74 | 203 | 1.0 | 1.0 | 0.00 | 0.00 | 0.00 | 99 | 4254.5 |
| 20260901063755 | 73 | 207 | 1.0 | 1.0 | 0.00 | 0.00 | 0.00 | 99 | 4254.5 |
| 20260901062752 | 74 | 214 | 1.0 | 1.0 | 0.00 | 0.00 | 0.00 | 99 | 4254.4 |
| 20260901061749 | 74 | 208 | 1.0 | 1.0 | 0.00 | 0.00 | 0.00 | 99 | 4254.5 |
| 20260901060744 | 74 | 215 | 1.0 | 1.0 | 0.00 | 0.00 | 0.00 | 99 | 4254.6 |
| 20260901055740 | 75 | 220 | 1.0 | 1.0 | 0.00 | 0.00 | 0.00 | 99 | 4254.6 |
| 20260901054739 | 75 | 206 | 1.0 | 1.0 | 0.00 | 0.00 | 0.00 | 99 | 4254.5 |
| 20260901053737 | 76 | 210 | 1.0 | 1.0 | 0.00 | 0.00 | 0.00 | 98 | 4254.7 |
| 20260901052733 | 76 | 210 | 0.0 | 0.0 | 0.00 | 0.00 | 0.00 | 99 | 4254.6 |
| 20260901051733 | 76 | 210 | 0.0 | 1.0 | 0.00 | 0.00 | 0.00 | 99 | 4254.7 |
| 20260901050729 | 77 | 211 | 0.0 | 0.0 | 0.00 | 0.00 | 0.00 | 97 | 4254.7 |
| 20260901045725 | 77 | 211 | 0.0 | 0.0 | 0.00 | 0.00 | 0.00 | 97 | 4254.6 |
| 20260901044721 | 76 | 211 | 0.0 | 0.0 | 0.00 | 0.00 | 0.00 | 97 | 4254.6 |
| 20260901043719 | 77 | 208 | 1.0 | 1.0 | 0.00 | 0.00 | 0.00 | 96 | 4254.5 |
| 20260901042714 | 77 | 189 | 0.0 | 0.0 | 0.00 | 0.00 | 0.00 | 96 | 4254.4 |
| 20260901041711 | 77 | 209 | 1.0 | 1.0 | 0.00 | 0.00 | 0.00 | 96 | 4254.5 |
| 20260901040711 | 77 | 210 | 1.0 | 1.0 | 0.00 | 0.00 | 0.00 | 95 | 4254.4 |
| 20260901035708 | 78 | 217 | 1.0 | 1.0 | 0.00 | 0.00 | 0.00 | 95 | 4254.5 |
| 20260901034707 | 78 | 210 | 1.0 | 1.0 | 0.00 | 0.00 | 0.00 | 93 | 4254.4 |
| 20260901033707 | 78 | 210 | 0.0 | 0.0 | 0.00 | 0.00 | 0.00 | 91 | 4254.5 |
| 20260901032706 | 78 | 213 | 1.0 | 1.0 | 0.00 | 0.00 | 0.00 | 94 | 4254.6 |
| 20260901031702 | 78 | 220 | 2.0 | 2.0 | 0.00 | 0.00 | 0.00 | 95 | 4254.5 |
| 20260901030658 | 78 | 212 | 1.0 | 1.0 | 0.00 | 0.00 | 0.00 | 95 | 4254.5 |
| 20260901025653 | 78 | 214 | 1.0 | 1.0 | 0.00 | 0.00 | 0.00 | 94 | 4254.4 |
| 20260901024653 | 79 | 213 | 1.0 | 1.0 | 0.00 | 0.00 | 0.00 | 94 | 4254.5 |
| 20260901023652 | 79 | 205 | 0.0 | 1.0 | 0.00 | 0.00 | 0.00 | 93 | 4254.4 |
| 20260901022647 | 80 | 205 | 1.0 | 1.0 | 0.00 | 0.00 | 0.00 | 92 | 4254.5 |
| 20260901021643 | 80 | 209 | 1.0 | 1.0 | 0.00 | 0.00 | 0.00 | 92 | 4254.4 |
| 20260901020641 | 80 | 220 | 1.0 | 1.0 | 0.00 | 0.00 | 0.00 | 91 | 4254.1 |
| 20260901015637 | 81 | 239 | 1.0 | 1.0 | 0.00 | 0.00 | 0.00 | 90 | 4254.2 |
| 20260901014637 | 81 | 230 | 1.0 | 2.0 | 0.00 | 0.00 | 0.00 | 89 | 4254.1 |
| 20260901013634 | 82 | 228 | 1.0 | 1.0 | 0.00 | 0.00 | 0.00 | 87 | 4254.0 |
| 20260901012630 | 83 | 218 | 1.0 | 1.0 | 0.00 | 0.00 | 0.00 | 85 | 4254.1 |
| 20260901011627 | 83 | 240 | 1.0 | 2.0 | 0.00 | 0.00 | 0.00 | 83 | 4253.9 |
| 20260901010627 | 84 | 223 | 0.0 | 0.0 | 0.00 | 0.00 | 0.00 | 80 | 4253.7 |
| 20260901005626 | 85 | 224 | 1.0 | 1.0 | 0.00 | 0.00 | 0.00 | 79 | 4253.9 |
| 20260901004626 | 85 | 224 | 0.0 | 0.0 | 0.00 | 0.00 | 0.00 | 78 | 4253.8 |
| 20260901003622 | 85 | 224 | 0.0 | 1.0 | 0.00 | 0.00 | 0.00 | 77 | 4253.4 |
| 20260901002621 | 87 | 211 | 0.0 | 0.0 | 0.00 | 0.00 | 0.00 | 75 | 4253.4 |
| 20260901001617 | 87 | 211 | 0.0 | 0.0 | 0.00 | 0.00 | 0.00 | 73 | 4253.3 |
| 20260901000613 | 88 | 210 | 0.0 | 0.0 | 0.00 | 0.00 | 0.00 | 72 | 4253.5 |
| 20260831235608 | 88 | 210 | 1.0 | 1.0 | 0.00 | 0.00 | 0.00 | 71 | 4253.5 |
| 20260831234603 | 89 | 210 | 1.0 | 1.0 | 0.00 | 0.00 | 0.00 | 71 | 4253.6 |
| 20260831233600 | 89 | 195 | 0.0 | 1.0 | 0.00 | 0.00 | 0.00 | 69 | 4253.7 |
| 20260831232557 | 89 | 208 | 0.0 | 1.0 | 0.00 | 0.00 | 0.00 | 69 | 4253.8 |
| 20260831231554 | 89 | 357 | 0.0 | 1.0 | 0.00 | 0.00 | 0.00 | 71 | 4253.5 |
| 20260831230551 | 90 | 358 | 0.0 | 0.0 | 0.00 | 0.00 | 0.00 | 76 | 4253.7 |
| 20260831225547 | 91 | 356 | 0.0 | 0.0 | 0.00 | 0.00 | 0.00 | 72 | 4253.8 |
| 20260831224542 | 91 | 356 | 0.0 | 0.0 | 0.00 | 0.00 | 0.00 | 74 | 4253.8 |
| 20260831223538 | 91 | 344 | 1.0 | 1.0 | 0.00 | 0.00 | 0.00 | 72 | 4253.8 |
| 20260831222536 | 92 | 42 | 0.0 | 1.0 | 0.00 | 0.00 | 0.00 | 66 | 4253.9 |
| 20260831221532 | 93 | 331 | 1.0 | 2.0 | 0.00 | 0.00 | 0.00 | 69 | 4253.8 |
| 20260831220527 | 93 | 331 | 1.0 | 2.0 | 0.00 | 0.00 | 0.00 | 67 | 4254.1 |